Simultaneous Nadir Overpasses (SNOs) Predictions

Prediction of SNOs between NOAA-19 and TERRA Satellite Orbit:

Table of predicted SNOs for the next 14.0 days since TLE Epoch: 5/2/2013
Index Date (NOAA-19) Time (NOAA-19) Lat,Lon (NOAA-19) SZA (NOAA-19 ) Date (TERRA) Time (TERRA) Lat,Lon (TERRA) SZA (TERRA ) Distance(km) Time Diff (sec)
1 05/03/2013 10:33:11 69.46, 21.51 53.57 05/03/2013 10:34:04 69.46, 21.52 53.56 0.47 53
2 05/03/2013 11:24:05 -69.33,-171.04 126.57 05/03/2013 11:23:34 -69.34,-171.00 126.57 2.12 31
3 05/05/2013 15:17:33 69.45, -49.56 52.93 05/05/2013 15:18:19 69.47, -49.53 52.94 2.06 46
4 05/05/2013 16:08:26 -69.29, 117.94 127.25 05/05/2013 16:07:50 -69.30, 117.88 127.24 2.65 36
5 05/07/2013 20:01:55 69.46,-120.65 52.33 05/07/2013 20:02:34 69.46,-120.60 52.32 1.98 39
6 05/07/2013 20:52:48 -69.31, 46.84 127.84 05/07/2013 20:52:05 -69.30, 46.81 127.86 1.93 43
7 05/10/2013 00:46:16 69.43, 168.31 51.71 05/10/2013 00:46:49 69.43, 168.30 51.71 0.50 33
8 05/10/2013 01:37:09 -69.29, -24.21 128.44 05/10/2013 01:36:20 -69.27, -24.28 128.46 3.31 49
9 05/12/2013 05:30:37 69.42, 97.26 51.13 05/12/2013 05:31:03 69.45, 97.26 51.16 3.39 26
10 05/12/2013 06:21:30 -69.28, -95.27 129.02 05/12/2013 06:20:34 -69.29, -95.32 129.01 2.25 56
11 05/14/2013 10:14:58 69.41, 26.19 50.59 05/14/2013 10:15:17 69.44, 26.19 50.62 3.09 19
12 05/14/2013 11:05:51 -69.28,-166.34 129.56 05/14/2013 11:04:48 -69.28,-166.38 129.55 1.71 63




NCC Satellite Simultaneous Nadir Overpasses (SNOs) Prediction Service
